This demonstration page uses our WeatherBlox Daily Observations layout. Learn more.

Left ArrowRight Arrow

Hourly Observations for November 6, 2016

Temp ( °F °C ) Dew Point ( °F °C ) Humidity (%) Winds ( mph kmh ) Pressure ( in mb ) Visibility ( mi km ) Precip ( " mm )
12:13 am 00:13 Cloudy 64 17.8 61 16.1 90 90 ESE 14 22 30.03 1017 10 16 0.00 0.00
12:41 am 00:41 Cloudy 63 17.2 61 16.1 93 93 ESE 12 19 30.06 1018 10 16 0.00 0.00
12:53 am 00:53 Cloudy 63 17.2 61 16.1 93 93 E 14 22 30.01 1016 9 14 0.00 0.00
1:53 am 01:53 Cloudy 63 17.2 60 15.6 90 90 E 12 19 29.99 1016 10 16 0.00 0.00
1:07 am 01:07 Cloudy 63 17.2 60 15.6 90 90 ESE 5 7 30.00 1016 9 14 0.00 0.00
1:22 am 01:22 Cloudy with Mist and Fog 63 17 61 16 94 94 VRB 3 6 30.06 1018 2 2 0.00 0.00
1:38 am 01:38 Cloudy with Mist and Fog 63 17 61 16 94 94 Calm 30.06 1018 2 3 0.00 0.00
1:43 am 01:43 Cloudy with Mist and Fog 62 16.7 61 16.1 96 96 WSW 14 22 30.06 1018 2 3 0.00 0.00
1:50 am 01:50 Cloudy with Fog 61 16 59 15 94 94 SE 7 11 30.06 1018 1 1 0.00 0.00
1:53 am 01:53 Cloudy with Fog 61 16.1 57 13.9 87 87 ESE 3 6 30.03 1017 1 1 0.00 0.00
1:58 am 01:58 Cloudy with Mist and Fog 61 16.1 57 13.9 87 87 E 8 13 30.03 1017 1 1 0.00 0.00
2:07 am 02:07 Cloudy with Mist and Fog 62 16.7 59 15 90 90 ESE 18 30 30.03 1017 4 6 0.00 0.00
2:17 am 02:17 Cloudy with Mist and Fog 62 16.7 60 15.6 93 93 SE 22 35 29.97 1015 3 5 0.00 0.00
2:53 am 02:53 Mostly Cloudy 62 16.7 59 15 90 90 ESE 15 24 29.91 1013 10 16 0.00 0.00
3:06 am 03:06 Partly Cloudy 58 14.4 56 13.3 93 93 N 15 24 29.97 1015 10 16 0.00 0.00
3:18 am 03:18 Mostly Clear 57 14 55 13 94 94 N 10 17 30.00 1016 10 16 0.00 0.00
3:53 am 03:53 Clear 58 14.4 56 13.3 93 93 NE 13 20 29.97 1015 10 16 0.00 0.00
4:53 am 04:53 Mostly Clear 58 14.4 55 12.8 90 90 SE 8 13 29.98 1015 10 16 0.00 0.00
5:28 am 05:28 Cloudy with Mist and Fog 57 14 55 13 94 94 NE 10 17 30.06 1018 2 3 0.00 0.00
5:37 am 05:37 Cloudy with Mist and Fog 57 13.9 55 12.8 93 93 E 12 19 30.00 1016 4 6 0.00 0.00
5:53 am 05:53 Mostly Cloudy 58 14.4 55 12.8 90 90 ESE 10 17 29.99 1016 10 16 0.00 0.00
6:53 am 06:53 Cloudy 58 14.4 57 13.9 97 97 ENE 6 9 30.00 1016 10 16 0.00 0.00
7:53 am 07:53 Cloudy 58 14.4 56 13.3 93 93 ESE 7 11 30.02 1017 10 16 0.00 0.00
8:20 am 08:20 Cloudy 59 15 55 13 88 88 SE 8 13 30.06 1018 10 16 0.00 0.00
8:53 am 08:53 Cloudy 59 15 57 13.9 93 93 undefined N/A 30.03 1017 10 16 0.00 0.00
9:53 am 09:53 Cloudy 62 16.7 58 14.4 86 86 SE 6 9 30.03 1017 10 16 0.00 0.00
10:53 am 10:53 Cloudy 67 19.4 60 15.6 79 79 SSE 14 22 30.01 1016 10 16 0.00 0.00
11:27 am 11:27 Mostly Cloudy 69 20.6 61 16.1 76 76 SSE 12 19 29.97 1015 10 16 0.00 0.00
11:53 am 11:53 Cloudy 69 20.6 61 16.1 76 76 SSE 12 19 29.98 1015 10 16 0.00 0.00
12:51 pm 12:51 Mostly Cloudy 70 21 61 16 73 73 S 12 19 29.94 1014 10 16 0.00 0.00
12:53 pm 12:53 Mostly Cloudy 70 21.1 61 16.1 73 73 S 10 17 29.95 1014 10 16 0.00 0.00
1:53 pm 13:53 Partly Cloudy 72 22.2 60 15.6 66 66 SSE 3 6 29.91 1013 10 16 0.00 0.00
2:53 pm 14:53 Partly Cloudy 74 23.3 61 16.1 64 64 SSE 7 11 29.89 1012 10 16 0.00 0.00
3:53 pm 15:53 Partly Cloudy 75 23.9 59 15 58 58 S 6 9 29.88 1012 10 16 0.00 0.00
4:53 pm 16:53 Sunny 76 24.4 59 15 56 56 SE 5 7 29.88 1012 10 16 0.00 0.00
5:53 pm 17:53 Sunny 72 22.2 60 15.6 66 66 SE 6 9 29.90 1012 10 16 0.00 0.00
6:53 pm 18:53 Clear 68 20 61 16.1 78 78 ESE 6 9 29.92 1013 10 16 0.00 0.00
7:53 pm 19:53 Clear 67 19.4 62 16.7 84 84 ESE 8 13 29.93 1014 10 16 0.00 0.00
8:53 pm 20:53 Clear 65 18.3 62 16.7 90 90 SE 10 17 29.95 1014 10 16 0.00 0.00
9:53 pm 21:53 Clear 64 17.8 62 16.7 93 93 SSE 9 15 29.96 1015 8 13 0.00 0.00
10:53 pm 22:53 Clear with Mist and Fog 62 16.7 61 16.1 96 96 SSE 7 11 29.96 1014 6 10 0.00 0.00
11:26 pm 23:26 Mostly Clear with Mist and Fog 63 17 61 16 94 94 SE 8 13 29.94 1014 4 6 0.00 0.00
11:43 pm 23:43 Mostly Cloudy with Mist and Fog 62 16.7 61 16.1 96 96 SSE 6 9 29.94 1014 4 6 0.00 0.00
11:53 pm 23:53 Cloudy with Mist and Fog 62 16.7 61 16.1 96 96 S 9 15 29.95 1014 3 5 0.00 0.00
11:56 pm 23:56 Cloudy with Mist and Fog 63 17 61 16 94 94 S 8 13 29.97 1015 2 3 0.00 0.00

Powered by AerisWeather